Wind_Speed
3 3 3 4 4 5 6 7 8 8 7 6 4 3 3 3 3 3 3 3 3 3 4 4 4 4 5 5 5 6 6 6 6 6 5 5 5 5 5 5 5 5 5
5 5 5 5 6 6 7 8 9 9 8 7 6 5 4 4 3 2 2 1 1 1 1 1 1 2 2 2 3 3 4 4 4 4 4 4 4 3 4 4 4 4 5
6 7 7 7 7 8 9 10 10 10 9 9 8 7 6 6 5 4 3 3 2 1 1 1 1 1 0 0 0 1 1 2 2 2 3 3 3 2 2 3 3 4 4
7 8 8 8 8 9 10 11 11 11 10 10 9 9 8 8 7 7 6 5 4 4 4 3 3 3 3 2 2 2 1 1 1 1 1 1 1 1 1 2 3 3 4
8 8 8 9 9 10 11 11 11 11 11 11 11 11 11 10 10 9 8 7 7 7 6 6 5 5 5 5 4 4 4 3 3 2 2 2 1 1 1 2 2 4 4
8 9 9 10 10 11 12 12 12 12 12 12 12 13 12 12 12 11 10 10 9 9 9 9 8 8 8 7 7 6 6 6 5 5 5 4 4 3 3 3 3 4 5
10 10 10 10 11 12 12 13 13 14 14 14 14 14 14 14 13 13 13 12 12 11 11 11 11 11 10 10 10 9 9 8 8 8 7 7 7 6 6 5 5 5 6
11 11 11 11 12 12 13 14 15 16 16 16 16 16 16 16 16 15 15 15 14 13 13 13 13 13 13 13 13 12 12 11 11 11 10 10 9 9 9 8 8 7 7
12 12 12 13 14 15 16 16 17 18 18 19 19 19 18 18 18 18 17 16 15 15 15 15 15 15 15 15 15 15 15 14 14 14 14 13 12 12 12 11 11 10 9
14 14 14 15 16 18 19 19 20 21 21 21 22 22 21 21 21 20 19 18 18 17 16 16 16 17 17 17 17 17 17 17 17 16 16 16 16 15 14 14 13 12 12
17 18 18 19 20 21 21 22 23 24 24 24 25 25 24 24 23 23 22 21 20 19 18 18 18 18 18 18 18 18 18 18 18 18 19 19 19 19 18 17 16 15 14
21 21 21 22 23 24 24 25 26 27 27 28 28 28 28 27 26 25 24 23 22 21 20 20 19 19 18 18 18 19 19 19 19 20 20 20 20 21 21 20 19 18 17
23 24 24 25 25 26 27 27 28 29 29 30 31 32 31 30 30 29 27 25 24 23 22 21 21 20 19 19 19 19 19 19 19 20 21 21 21 22 22 22 22 22 21
26 26 27 28 28 28 29 30 30 31 31 33 33 33 33 33 32 32 30 28 27 25 24 24 22 22 21 21 21 21 20 20 20 21 20 21 21 22 23 24 24 24 23
29 29 30 30 30 31 31 31 32 32 33 34 34 35 35 34 33 34 32 31 29 28 27 26 24 23 23 23 22 21 21 20 21 21 21 20 21 22 23 24 25 26 25
32 32 32 32 32 33 33 34 34 34 35 34 35 36 37 36 34 35 35 33 32 31 30 28 27 25 24 22 21 21 21 20 20 20 20 20 21 22 23 23 24 26 26
34 34 34 34 35 35 36 36 36 35 35 35 35 36 37 37 37 35 36 35 34 32 31 30 28 26 24 23 22 22 21 21 21 21 21 20 20 21 22 22 23 25 25
35 36 36 36 38 38 38 38 37 37 37 36 36 36 37 36 36 36 36 36 35 35 33 32 30 27 26 24 24 23 23 22 23 23 23 21 21 21 21 21 21 22 24
35 37 37 38 40 41 41 42 39 38 38 37 36 37 36 36 35 35 35 36 35 36 34 32 30 29 27 26 25 25 24 23 23 24 23 22 22 21 21 21 21 21 21
36 38 39 40 42 42 43 42 40 39 38 36 36 35 34 33 33 33 33 32 32 33 32 31 31 29 29 27 26 26 26 25 23 23 24 23 22 21 21 21 21 21 21
37 38 40 41 41 42 42 41 39 38 37 36 35 33 33 33 32 31 30 31 30 30 30 30 29 29 28 27 27 26 27 26 25 24 24 24 23 23 22 21 21 20 20
36 38 40 41 42 41 40 38 37 36 35 34 32 31 31 32 30 29 29 29 29 28 28 28 30 30 29 28 28 28 28 28 27 26 26 25 24 24 23 22 21 21 21
35 37 39 40 40 39 38 37 36 35 34 34 33 32 31 31 30 29 30 30 30 29 28 28 28 29 30 30 30 29 30 30 29 28 28 27 26 25 25 24 23 22 21
35 36 37 37 37 38 38 38 38 38 38 37 36 34 33 33 33 32 32 33 32 32 31 31 30 31 31 31 32 31 31 30 30 30 30 29 28 27 27 26 25 24 23
35 36 36 37 38 39 39 40 41 41 41 40 39 38 37 36 36 37 37 36 36 36 35 34 34 34 34 34 34 33 33 33 32 32 32 31 30 30 29 29 27 26 25
36 37 38 39 40 41 42 43 44 44 44 43 43 42 42 41 41 41 41 41 40 41 40 40 39 39 38 38 37 37 36 36 35 35 34 34 33 33 32 31 30 28 27
Wind_Direction
332 331 330 331 332 330 326 321 322 323 324 326 335 351 7 25 41 54 62 70 74 74 74 75 75 74 72 72 72 72 73 74 75 75 78 84 90 94 97 104 113 120 123
320 319 317 316 318 319 316 313 314 315 316 318 321 326 331 338 345 352 4 26 50 61 64 69 71 75 74 74 75 75 76 78 80 80 80 81 85 91 95 103 114 126 135
315 315 316 315 314 315 313 310 310 311 310 312 315 318 320 320 320 318 313 309 301 289 277 271 272 272 279 326 76 91 92 95 89 89 87 85 86 88 97 113 127 139 150
311 313 313 313 313 312 310 308 307 307 307 308 310 311 314 313 312 309 302 295 287 278 268 263 261 262 264 262 258 247 232 213 200 162 123 108 99 100 110 129 149 157 168
306 307 310 311 310 308 307 304 302 302 302 303 305 305 306 306 306 303 297 290 282 276 271 266 263 262 263 262 259 255 248 240 236 235 231 230 227 213 193 184 177 177 180
304 304 306 308 307 304 302 301 299 298 299 299 301 302 302 302 301 299 294 287 281 275 271 268 265 263 261 260 258 256 252 247 243 242 241 238 237 237 233 223 209 198 194
303 304 306 307 305 303 299 298 298 298 297 297 299 299 300 300 298 296 293 287 281 276 272 269 266 263 260 257 256 253 252 249 246 245 244 243 240 239 239 237 230 218 208
302 302 302 302 301 300 298 297 296 297 297 296 296 296 297 297 296 293 291 287 283 278 273 269 265 263 261 258 256 253 251 250 248 246 245 244 243 241 240 239 238 232 222
299 298 298 297 296 297 297 296 296 295 295 295 295 294 294 293 291 290 289 287 284 279 275 270 265 262 260 258 256 253 252 250 249 249 247 246 245 244 243 242 239 236 231
299 297 297 296 294 295 296 295 295 294 293 293 292 292 290 288 288 286 285 284 281 278 275 272 267 263 261 259 256 252 251 251 249 249 249 247 246 246 245 243 241 238 235
295 295 294 294 295 295 295 294 293 293 291 290 289 289 287 285 284 282 281 280 278 276 274 271 268 265 262 260 258 255 252 252 250 249 250 249 247 247 247 245 242 240 238
295 294 294 295 295 295 294 292 291 290 289 288 286 285 285 283 281 279 277 276 276 274 272 269 267 265 263 261 258 256 255 253 251 251 251 250 248 247 246 245 243 241 240
293 293 293 296 295 294 293 292 290 289 287 287 285 282 281 279 277 276 274 273 272 271 270 267 265 264 263 261 259 258 257 255 255 253 251 250 249 247 247 246 245 244 243
291 291 291 293 293 293 294 295 292 288 286 284 283 282 280 277 275 272 272 270 270 269 267 266 264 264 262 261 259 257 256 255 256 255 254 254 251 249 248 247 247 245 243
289 288 290 291 291 291 291 292 291 287 287 285 281 282 280 277 273 269 268 268 267 266 265 264 263 262 261 261 260 258 258 257 255 253 253 254 252 250 248 249 249 245 244
284 285 286 288 289 289 287 290 291 289 286 286 284 283 279 277 273 268 265 266 266 265 262 261 261 260 259 260 259 257 256 255 254 254 253 253 252 251 250 250 252 247 245
282 282 283 285 288 289 288 288 290 289 287 285 283 282 278 275 273 269 264 263 263 261 259 258 258 259 258 258 259 257 254 254 253 254 255 255 252 251 251 252 252 249 245
280 282 284 285 287 288 288 287 289 287 285 285 282 280 276 274 274 271 266 261 260 257 255 254 256 255 255 257 257 256 254 253 253 252 253 255 254 252 251 251 250 249 247
279 281 284 285 287 287 288 287 285 285 284 283 280 279 276 275 273 270 264 258 257 255 254 252 253 253 254 255 255 255 254 254 255 252 251 252 251 250 250 248 248 248 250
280 282 284 285 287 287 288 287 286 285 284 283 281 278 275 276 275 270 260 255 254 254 252 251 251 251 254 255 256 255 253 252 251 250 249 249 249 249 248 248 247 248 249
282 284 286 287 286 287 289 287 286 286 283 284 282 279 273 272 272 266 259 254 254 254 253 253 251 250 252 254 255 254 252 249 249 248 247 248 248 247 246 247 247 247 248
285 284 286 287 288 288 288 289 287 288 288 285 283 280 275 269 267 260 257 255 257 254 254 255 251 249 249 252 253 252 250 249 248 248 247 246 245 245 244 244 246 246 246
288 290 288 287 287 288 288 289 288 288 290 286 283 279 276 272 268 265 260 257 256 256 257 255 253 249 250 250 251 250 249 249 246 246 245 244 243 242 243 244 244 245 247
292 292 291 289 289 289 288 288 289 290 288 286 283 279 277 274 270 266 264 260 257 255 255 254 254 253 250 249 249 249 247 246 246 246 244 242 241 241 241 242 241 243 247
297 295 292 291 291 290 289 288 287 287 286 285 282 279 275 272 267 264 264 262 259 257 256 254 253 252 250 249 248 248 245 244 245 244 243 242 240 240 239 239 239 241 244
298 297 295 294 292 290 289 288 287 286 284 282 280 278 274 271 268 263 261 260 260 259 257 255 253 251 250 249 248 247 246 245 244 243 242 242 242 240 239 239 239 239 241
Height
5923 5923 5922 5921 5920 5919 5919 5918 5918 5917 5916 5915 5913 5912 5911 5910 5909 5908 5908 5907 5906 5906 5905 5905 5904 5903 5903 5902 5901 5901 5900 5899 5899 5898 5898 5898 5897 5897 5896 5896 5896 5896 5896
5923 5922 5921 5921 5920 5919 5919 5918 5917 5917 5916 5914 5913 5912 5911 5910 5909 5908 5908 5907 5906 5906 5905 5905 5904 5904 5903 5903 5902 5902 5901 5900 5900 5899 5899 5899 5898 5898 5897 5897 5897 5897 5897
5922 5921 5920 5920 5919 5919 5918 5917 5917 5916 5915 5914 5913 5911 5910 5910 5909 5908 5907 5907 5906 5905 5905 5905 5904 5904 5903 5903 5902 5902 5901 5901 5901 5900 5900 5899 5899 5899 5898 5898 5898 5898 5898
5920 5919 5919 5918 5918 5917 5917 5916 5915 5915 5914 5912 5911 5910 5909 5908 5908 5907 5906 5906 5905 5905 5904 5904 5904 5903 5903 5903 5902 5902 5901 5901 5901 5900 5900 5899 5899 5899 5899 5899 5899 5899 5899
5919 5918 5917 5917 5916 5916 5915 5915 5914 5913 5912 5911 5910 5909 5908 5907 5906 5906 5905 5905 5904 5904 5903 5903 5902 5902 5902 5902 5901 5901 5901 5901 5900 5900 5900 5900 5899 5899 5899 5900 5899 5900 5900
5917 5916 5915 5915 5914 5914 5913 5913 5912 5911 5910 5909 5908 5907 5906 5905 5905 5904 5904 5903 5902 5902 5902 5901 5901 5901 5900 5900 5900 5900 5900 5900 5900 5900 5899 5899 5899 5899 5900 5900 5900 5900 5900
5915 5914 5913 5912 5912 5911 5911 5910 5909 5908 5907 5906 5906 5905 5904 5903 5903 5902 5901 5901 5900 5900 5899 5899 5899 5898 5898 5898 5898 5898 5898 5898 5898 5898 5898 5898 5899 5899 5899 5900 5900 5900 5900
5913 5912 5911 5910 5909 5909 5908 5907 5906 5905 5904 5904 5903 5902 5901 5900 5900 5899 5898 5898 5897 5897 5896 5896 5896 5896 5895 5895 5895 5896 5896 5896 5896 5896 5897 5897 5897 5898 5898 5899 5899 5899 5900
5910 5909 5908 5907 5906 5906 5905 5904 5903 5902 5901 5900 5899 5899 5898 5897 5896 5895 5895 5894 5894 5893 5893 5892 5892 5892 5892 5892 5892 5893 5893 5893 5894 5894 5895 5895 5896 5896 5897 5897 5898 5898 5899
5908 5907 5906 5905 5904 5903 5902 5901 5900 5899 5897 5896 5895 5895 5894 5893 5892 5891 5891 5890 5890 5889 5889 5888 5888 5888 5888 5888 5888 5889 5889 5890 5890 5891 5892 5893 5893 5894 5895 5895 5896 5896 5897
5906 5904 5903 5902 5900 5899 5898 5897 5895 5894 5893 5892 5891 5890 5889 5888 5887 5887 5886 5886 5885 5885 5884 5884 5884 5883 5883 5884 5884 5884 5885 5886 5886 5887 5888 5889 5890 5891 5892 5893 5893 5894 5895
5903 5901 5900 5898 5897 5895 5894 5892 5891 5889 5888 5886 5885 5884 5883 5883 5882 5882 5881 5881 5880 5880 5879 5879 5879 5879 5879 5879 5879 5879 5880 5881 5882 5882 5884 5885 5886 5887 5888 5889 5890 5891 5892
5899 5898 5896 5895 5893 5891 5889 5887 5886 5884 5882 5880 5879 5878 5877 5876 5876 5876 5875 5875 5874 5874 5874 5874 5874 5874 5874 5874 5874 5874 5875 5876 5877 5877 5879 5880 5881 5882 5883 5884 5886 5887 5888
5895 5893 5892 5890 5888 5887 5885 5883 5880 5878 5876 5874 5873 5872 5870 5870 5869 5869 5868 5868 5868 5868 5868 5868 5868 5868 5868 5869 5869 5870 5870 5871 5872 5872 5873 5874 5875 5877 5878 5879 5880 5882 5883
5890 5888 5887 5885 5884 5881 5879 5877 5875 5872 5870 5868 5866 5864 5863 5862 5862 5861 5862 5861 5861 5862 5862 5862 5862 5863 5863 5863 5864 5865 5865 5866 5866 5867 5868 5869 5870 5871 5872 5874 5875 5876 5878
5884 5883 5881 5879 5878 5875 5873 5870 5868 5865 5863 5860 5858 5856 5855 5854 5854 5854 5854 5854 5854 5855 5855 5856 5856 5856 5856 5857 5858 5859 5860 5860 5861 5862 5862 5863 5865 5866 5867 5868 5869 5870 5872
5878 5876 5873 5872 5870 5868 5866 5863 5861 5858 5855 5853 5851 5849 5847 5846 5845 5845 5845 5846 5847 5847 5848 5849 5849 5849 5850 5851 5852 5853 5854 5855 5856 5857 5857 5858 5859 5861 5862 5863 5864 5865 5867
5872 5869 5867 5865 5863 5860 5858 5855 5852 5850 5847 5845 5842 5840 5838 5837 5836 5836 5836 5837 5837 5838 5840 5841 5842 5843 5843 5844 5845 5847 5848 5849 5850 5851 5852 5853 5854 5856 5857 5858 5859 5860 5862
5865 5862 5860 5857 5855 5852 5848 5846 5843 5841 5838 5836 5833 5831 5829 5828 5827 5826 5826 5827 5828 5830 5831 5833 5835 5836 5837 5838 5839 5840 5842 5843 5844 5845 5847 5848 5849 5851 5852 5853 5854 5855 5857
5858 5855 5852 5849 5846 5843 5839 5835 5834 5832 5829 5827 5824 5822 5821 5820 5818 5817 5816 5818 5820 5822 5824 5826 5827 5828 5829 5831 5832 5834 5835 5836 5838 5839 5841 5842 5844 5845 5847 5848 5849 5850 5852
5850 5847 5844 5841 5836 5833 5830 5827 5825 5822 5820 5817 5815 5813 5813 5811 5810 5809 5808 5810 5813 5815 5817 5819 5819 5820 5822 5824 5825 5827 5828 5830 5831 5833 5835 5836 5838 5840 5841 5843 5844 5846 5847
5842 5839 5836 5832 5828 5824 5822 5819 5816 5814 5811 5808 5806 5806 5804 5803 5802 5801 5802 5804 5805 5807 5809 5810 5811 5813 5815 5816 5818 5820 5821 5823 5825 5826 5828 5830 5832 5834 5836 5837 5839 5841 5842
5834 5830 5827 5823 5819 5816 5813 5811 5808 5806 5803 5801 5801 5799 5798 5796 5796 5796 5796 5797 5798 5800 5801 5802 5803 5805 5807 5809 5810 5812 5814 5816 5818 5820 5821 5823 5825 5828 5830 5832 5834 5835 5837
5826 5822 5818 5815 5811 5808 5805 5803 5800 5798 5796 5794 5793 5791 5790 5789 5789 5788 5789 5790 5790 5792 5793 5794 5795 5797 5798 5800 5802 5804 5806 5808 5810 5812 5814 5816 5818 5821 5823 5826 5828 5830 5831
5818 5813 5810 5806 5803 5800 5797 5794 5791 5789 5787 5785 5783 5782 5781 5780 5780 5779 5780 5780 5781 5782 5783 5784 5786 5788 5789 5791 5793 5795 5798 5800 5802 5804 5807 5809 5811 5814 5817 5819 5821 5823 5825
5810 5805 5801 5797 5794 5791 5787 5784 5781 5779 5776 5774 5772 5771 5770 5769 5769 5769 5769 5769 5770 5771 5773 5774 5776 5778 5780 5781 5783 5786 5789 5791 5794 5796 5798 5801 5803 5806 5809 5812 5814 5816 5819